Location: Aldenham
(51.6667°N, 0.3500°W)
Time: 17:31:59
(UTC+00:00)

Vanguard 2 Rocket - Pass Details

Date: 18 February 2026
Orbit: 553 x 3286 km, 32.9° (Epoch: 11 March)

Event Time Altitude Azimuth Distance (km) Brightness Sun altitude
Rises 13:32:50 0° 239° (WSW) 7,185 12.3 24.6°
Reaches altitude 10° 13:38:37 10° 231° (SW) 5,977 12.2 24.3°
Maximum altitude 13:53:04 33° 177° (S) 3,523 11.2 23.4°
Drops below altitude 10° 14:02:59 10° 120° (ESE) 4,087 10.3 22.7°
Sets 14:06:05 0° 110° (ESE) 4,727 10.5 22.4°
